Location: ??????????
(54.8537°N, 38.8755°E)
Time: 21:41:44
(UTC+00:00)

Transit 2A Rocket - Pass Details

Date: 22 September 2024
Orbit: 582 x 908 km, 66.7° (Epoch: 09 October)

Event Time Altitude Azimuth Distance (km) Brightness Sun altitude
Rises 01:15:23 0° 309° (NW) 3,541 8.2 -16.8°
Reaches altitude 10° 01:18:12 10° 318° (NW) 2,583 7.6 -16.4°
Maximum altitude 01:23:39 34° 23° (NNE) 1,397 6.8 -15.7°
Drops below altitude 10° 01:28:49 10° 88° (E) 2,440 8.8 -15.0°
Sets 01:31:25 0° 97° (E) 3,321 9.4 -14.7°
